User: anonymous   Login
Location: Unspecified
(0.0000°N, 0.0000°E)
Time: 10:03:20
(UTC+00:00)
Language:

STARLINK-36279 - Orbit

View from above orbital plane
View from above orbital plane
View from above satellite
View from above satellite

Ground track
Ground track

The orbit is defined by the following mean orbital elements,

1 67193U          26145.25287361 +.00000000 +00000-0 +12492-3 0 00002
2 67193  70.0018 341.3922 0002625 266.6429  93.4430 14.98334802    03
Epoch (UTC): 25 May 2026 06:04:08
Eccentricity: 0.0002625
inclination: 70.0018°
perigee height: 570 km
apogee height: 574 km
right ascension of ascending node: 341.3922°
argument of perigee: 266.6429°
revolutions per day: 14.98334802
mean anomaly at epoch: 93.4430°

The dashed part of the orbit path shows where the satellite is in the earth's shadow,  

DLR